Theta_e
327 329 330 328 324 326 327 325 323 323 320 318 315 315 314 315 313 313 314 312 310 308 309 307 310 312 311 312 312 309 309 312 318 316 320 321 323 326 328 328 329 330 335
328 329 328 324 324 323 322 323 322 321 319 316 316 315 313 313 313 313 314 313 311 309 309 309 308 311 309 311 310 310 307 309 313 310 311 313 317 322 325 327 326 329 333
326 329 326 326 326 323 322 321 320 320 318 318 315 314 314 313 311 311 310 311 310 309 308 310 309 310 308 306 310 309 308 305 309 311 308 310 311 321 329 329 334 331 331
330 329 327 325 324 322 322 321 320 318 316 317 314 313 310 308 309 309 307 309 309 307 307 309 309 310 309 307 309 310 310 308 304 306 308 310 314 313 315 327 331 328 327
329 327 326 324 322 321 320 320 319 317 316 315 314 312 311 310 310 307 308 310 309 307 307 310 310 310 308 309 309 310 307 307 305 304 304 306 312 319 315 316 323 326 324
326 324 323 321 320 320 319 318 316 315 315 315 314 313 309 308 306 307 305 305 306 306 309 309 309 310 309 309 308 310 309 306 305 305 304 303 302 303 306 315 318 321 322
323 321 320 318 318 317 316 314 313 313 314 313 313 311 310 309 308 308 307 307 305 306 310 310 310 310 310 311 311 311 310 309 306 305 304 304 304 304 305 308 314 317 325
322 321 318 317 317 316 315 311 312 312 313 313 313 312 312 309 308 311 310 308 308 309 311 311 311 311 311 310 311 309 309 310 309 310 308 306 305 305 304 305 307 311 318
320 318 317 317 316 315 312 311 311 312 313 313 312 311 311 311 310 313 312 310 311 311 312 313 312 312 312 312 312 308 309 310 309 309 310 308 309 310 307 306 307 306 310
318 317 317 316 315 313 312 311 311 311 312 313 310 310 310 311 311 312 312 313 313 313 312 311 312 312 310 310 311 309 311 310 309 309 310 310 307 308 307 308 308 309 307
317 316 316 316 313 312 310 310 311 311 311 312 310 311 310 312 312 313 313 312 313 314 312 312 311 309 308 308 307 310 309 308 309 309 307 309 310 308 307 309 311 310 308
317 316 315 315 313 311 309 310 311 311 312 313 311 311 312 312 313 313 312 313 312 312 311 311 310 309 310 311 311 308 308 309 308 307 307 307 307 308 308 306 308 308 310
316 315 314 313 312 310 309 310 312 312 312 312 312 313 312 311 312 313 313 313 313 312 311 312 308 309 310 309 308 310 308 307 306 308 306 307 307 305 306 306 308 308 309
315 315 314 313 311 311 309 310 312 313 313 312 312 312 312 311 313 313 313 313 312 311 311 311 309 311 310 309 307 306 309 308 306 303 308 308 308 307 307 306 305 306 307
314 314 314 313 311 311 310 310 312 313 314 311 311 311 312 313 313 313 312 313 312 311 310 310 310 309 309 307 309 307 306 305 306 308 307 309 309 308 308 306 305 304 303
314 314 314 312 311 310 310 309 311 312 314 312 310 311 313 312 312 313 311 312 312 312 311 309 309 309 306 302 303 305 306 306 305 304 305 309 308 307 307 307 307 306 304
315 314 313 313 311 311 311 309 311 313 314 312 312 311 312 311 311 312 311 311 312 312 311 311 310 308 308 301 300 303 307 306 305 306 306 306 307 308 308 306 306 305 307
316 315 314 313 313 313 311 311 311 311 312 312 312 312 313 312 312 311 312 312 312 312 311 311 311 310 307 301 299 300 308 307 307 309 307 307 307 307 303 308 307 307 304
318 316 315 314 314 312 312 310 310 310 310 312 312 313 313 312 311 310 311 311 311 311 312 311 310 310 308 300 299 303 310 308 307 308 307 304 306 300 300 306 305 305 305
318 316 314 314 313 312 312 310 310 309 309 312 312 313 314 313 311 310 310 308 311 310 310 310 310 307 308 298 298 301 305 308 304 308 305 302 303 299 299 308 306 304 305
317 315 314 313 313 313 313 311 311 309 311 312 312 313 314 314 313 313 311 310 311 310 311 309 310 310 308 306 298 298 308 306 305 303 304 303 299 298 298 300 307 304 305
313 314 313 313 314 314 314 312 311 313 312 312 311 312 313 313 313 312 311 312 311 310 308 307 308 308 308 301 300 298 298 302 307 302 303 304 297 297 297 302 298 299 301
313 314 313 313 314 314 314 312 313 314 311 311 311 312 312 313 313 312 312 310 311 309 309 306 304 305 306 306 300 299 298 301 305 306 302 299 298 299 300 299 300 300 305
313 314 313 312 312 314 313 313 314 314 311 309 310 311 312 311 312 311 311 309 309 308 308 305 305 303 305 304 306 304 306 303 304 305 305 301 300 300 301 302 303 305 305
314 314 313 313 312 312 314 315 313 314 310 309 309 310 309 310 310 310 310 308 311 306 307 306 306 303 301 303 296 298 304 304 301 302 306 305 304 303 300 301 301 303 305
315 314 314 313 314 314 314 314 316 313 311 309 308 306 307 307 309 306 310 300 299 298 296 295 299 305 297 294 293 293 293 294 294 303 303 302 303 301 301 299 298 300 301
Wind_Speed
9 9 7 9 8 8 10 11 12 13 11 9 10 9 9 8 8 8 10 11 10 10 10 9 10 10 10 10 9 8 10 10 10 11 11 10 14 15 13 12 12 14 13
11 9 8 7 8 9 9 10 10 11 11 8 8 6 7 7 7 8 10 12 12 11 11 11 10 11 10 11 11 9 6 7 9 6 11 10 9 12 13 11 10 13 9
12 10 9 7 8 8 9 9 10 10 11 12 7 7 6 6 9 10 11 11 14 11 10 12 10 11 9 9 11 11 10 6 9 11 5 7 5 7 2 4 4 3 3
11 11 10 8 7 8 8 9 9 11 10 12 9 10 8 9 9 10 8 10 13 11 11 12 12 10 8 8 10 10 8 7 9 8 7 8 7 7 5 3 3 2 4
11 11 9 9 7 7 7 8 9 10 9 10 10 9 11 9 9 8 10 11 10 11 11 12 11 10 8 10 10 10 11 9 5 7 6 9 10 7 6 8 3 3 3
12 11 11 8 7 7 7 8 9 8 9 9 10 11 11 9 8 9 9 9 8 7 11 12 10 10 10 10 9 9 8 5 8 6 7 6 4 7 5 5 6 4 3
13 12 10 8 5 6 7 7 8 9 9 9 10 10 9 8 8 10 9 10 9 9 10 11 11 10 11 12 10 9 8 8 4 5 4 4 4 3 5 6 6 4 1
12 11 9 7 7 6 7 8 8 8 9 9 9 9 9 7 7 8 8 7 8 9 11 9 9 9 10 11 11 8 8 7 8 8 3 2 3 4 4 4 5 5 3
12 11 9 7 7 7 7 8 8 8 8 8 8 8 8 8 8 10 9 8 9 9 10 11 11 11 13 12 11 7 8 9 8 9 10 7 6 5 3 4 5 4 4
13 10 8 7 7 6 7 7 7 7 7 8 8 7 6 8 9 9 9 11 11 11 11 11 12 12 12 13 13 10 10 8 7 7 10 8 6 6 6 2 4 4 3
13 10 8 8 7 5 7 6 6 6 6 7 6 6 7 7 8 9 10 10 10 11 11 11 10 10 10 10 12 12 12 11 10 10 9 10 9 5 4 6 4 2 2
12 10 8 8 6 6 5 6 5 5 5 6 6 5 6 7 8 9 12 12 12 11 10 12 12 11 13 12 12 13 13 12 13 11 11 11 8 10 5 5 4 5 3
11 9 8 7 6 5 5 5 3 5 5 5 5 6 7 7 8 9 10 10 11 13 13 13 11 12 13 15 13 13 14 11 12 12 12 11 10 11 6 7 6 4 3
11 9 7 7 6 4 4 4 3 4 4 5 5 6 8 7 7 8 9 10 10 11 12 11 9 12 12 12 12 10 12 11 6 8 12 12 13 12 11 7 8 6 4
12 9 8 7 6 5 5 5 3 3 2 4 6 6 6 6 6 7 9 10 10 9 10 11 11 11 10 10 13 11 9 11 12 11 10 11 13 13 15 7 8 7 6
12 10 8 8 7 5 4 5 4 3 1 3 5 5 5 6 6 6 8 9 9 9 10 12 11 12 11 14 14 11 8 8 9 9 9 11 12 8 14 16 19 14 6
12 10 9 8 6 5 4 5 5 3 1 1 3 4 5 5 5 6 6 9 10 10 10 10 11 11 13 14 14 13 7 6 8 9 8 8 9 10 10 11 11 15 11
11 10 9 8 7 5 5 5 5 5 3 1 2 3 2 3 4 5 7 8 8 8 8 9 11 11 10 14 14 16 4 6 7 10 10 10 9 12 9 6 9 9 11
10 10 9 9 7 5 5 6 6 5 5 2 1 1 2 3 6 7 6 6 7 9 10 9 9 12 11 12 14 15 9 7 7 9 10 9 10 13 13 5 9 8 9
11 11 11 10 8 6 4 5 6 5 5 2 1 2 1 3 4 5 5 5 7 6 7 8 8 7 11 13 13 14 5 9 6 6 7 11 11 10 11 8 4 6 6
12 12 11 9 7 6 4 3 3 5 4 3 4 3 2 4 4 5 6 4 7 6 7 7 7 8 9 10 11 12 10 9 3 5 5 5 10 9 9 9 7 6 7
14 13 10 9 8 6 3 1 0 2 4 4 5 5 4 5 3 6 5 7 6 6 5 6 6 5 7 7 7 6 7 12 6 6 5 5 8 7 9 7 7 7 10
12 10 10 10 8 6 4 3 3 1 5 5 6 5 5 6 4 6 6 5 5 6 5 7 7 7 7 7 7 4 5 6 7 6 6 6 8 7 2 7 8 9 3
11 9 9 9 8 6 5 6 4 1 4 5 5 5 6 5 4 6 5 4 6 4 4 6 8 8 7 8 11 10 8 7 5 2 6 5 4 5 3 4 5 5 5
11 9 7 7 8 6 6 5 3 1 4 4 4 5 4 3 3 4 5 6 4 6 8 5 7 8 9 9 5 8 9 9 9 11 5 5 6 6 7 7 6 5 4
11 8 7 7 7 7 5 3 2 2 3 2 2 3 4 4 3 4 4 4 4 6 6 3 5 6 4 6 8 8 7 8 10 5 5 6 5 5 7 6 6 5 5
Wind_Direction
144 129 107 86 88 69 57 42 38 25 8 11 6 7 8 10 7 14 13 4 8 4 355 345 348 346 342 333 344 339 325 315 330 309 293 260 235 242 248 244 241 245 246
163 142 121 113 91 78 65 52 40 32 19 18 19 8 10 21 5 9 11 10 6 4 358 350 348 356 336 343 343 347 335 325 340 314 307 267 242 229 231 241 248 252 243
176 162 145 129 105 79 60 54 42 33 30 4 22 9 20 19 12 10 13 7 11 359 354 353 347 351 352 346 338 349 341 330 327 335 289 309 305 343 307 255 253 34 29
166 162 151 130 106 87 70 54 44 31 37 22 29 30 14 13 19 16 8 2 17 13 357 354 353 360 338 337 346 348 336 349 336 336 337 300 285 294 272 213 138 120 107
175 160 145 126 110 92 70 55 45 37 40 39 31 16 21 12 21 10 14 11 24 20 8 359 360 359 356 346 350 353 358 356 335 338 333 322 314 341 288 275 215 140 79
154 135 123 130 109 90 78 60 38 47 37 38 36 31 24 8 4 5 7 9 15 16 16 1 358 360 349 353 337 344 358 356 343 346 336 342 339 335 330 318 311 313 160
149 144 151 125 108 77 53 47 44 49 41 32 30 29 16 9 1 359 9 3 6 7 21 2 1 354 350 347 342 333 338 343 326 331 324 323 330 308 309 293 305 311 170
153 145 133 122 95 77 54 48 59 47 38 32 26 17 4 6 352 13 354 5 7 3 350 4 354 353 351 350 343 333 348 355 342 342 294 273 313 307 312 311 328 309 242
146 141 135 123 93 83 62 59 56 55 41 35 22 22 10 4 5 8 357 7 3 357 349 346 345 354 351 354 349 353 344 339 354 349 355 354 354 347 279 306 305 314 312
148 147 142 119 100 86 87 71 59 55 44 27 28 17 8 23 12 15 10 8 7 2 355 354 348 3 1 2 359 346 3 351 1 1 354 343 350 338 325 262 280 276 298
153 157 141 125 105 88 73 83 68 51 39 34 14 18 17 27 17 20 15 13 0 7 3 356 4 0 11 5 354 346 359 4 6 5 345 1 359 322 331 323 283 272 240
153 155 147 137 132 89 87 100 74 51 28 20 22 17 23 25 24 19 19 11 9 17 11 10 7 4 7 358 2 349 354 357 12 358 1 357 358 355 3 321 302 307 276
161 158 153 141 133 115 121 110 85 46 20 21 27 32 28 23 19 18 27 24 12 8 8 12 10 5 6 5 4 356 350 17 13 356 357 352 18 360 8 350 346 316 271
165 166 162 151 150 129 141 138 106 50 41 40 32 33 31 17 15 21 18 19 11 10 5 17 9 15 10 10 358 356 342 6 36 9 353 1 13 14 8 6 11 358 71
176 171 174 161 159 161 157 163 139 103 56 34 33 33 29 36 30 22 15 12 15 16 6 16 17 22 12 14 349 356 353 358 356 12 357 7 8 36 28 23 22 21 58
182 177 172 167 168 166 184 170 164 129 75 30 24 29 32 49 41 23 21 26 14 11 9 3 11 19 24 354 349 341 352 4 0 2 5 348 19 37 61 41 42 44 45
181 177 172 170 163 168 175 189 179 173 203 359 48 58 49 53 38 20 20 20 11 1 0 4 2 15 26 358 345 340 357 3 2 352 5 354 20 10 13 73 50 47 44
176 173 167 160 157 156 180 169 184 202 223 236 67 74 54 41 13 1 17 4 353 357 1 360 359 359 46 3 348 339 19 25 1 13 12 2 19 18 355 18 53 68 49
169 167 157 152 147 164 178 193 196 207 227 232 4 47 20 12 15 2 352 343 332 345 347 4 5 357 35 23 353 342 21 4 16 21 32 10 22 4 348 7 72 35 61
158 159 152 146 147 134 171 205 208 208 228 244 305 295 331 324 17 3 349 327 314 346 337 349 7 343 25 40 3 357 16 18 13 26 16 38 13 351 352 360 46 54 49
154 151 153 158 145 131 147 194 219 218 223 256 272 266 293 313 0 328 299 291 304 328 352 354 345 8 29 33 13 4 2 1 37 3 8 15 357 357 351 332 35 35 332
149 159 161 153 144 154 192 107 276 222 220 256 268 272 288 308 322 313 314 300 304 307 329 348 337 10 5 67 35 351 357 348 26 22 358 19 351 348 358 360 4 321 288
159 160 160 151 155 162 216 271 1 275 230 253 275 281 295 302 330 311 313 311 287 309 342 346 356 19 6 356 35 357 349 12 11 41 8 348 6 354 348 14 333 297 3
158 156 163 162 161 183 188 245 283 276 243 265 284 286 284 328 320 302 351 321 318 342 346 350 3 359 9 10 7 351 349 5 350 123 75 27 14 358 14 350 353 354 21
155 153 172 159 141 202 200 220 268 272 221 263 292 283 285 312 335 326 330 337 347 352 342 3 351 359 356 19 337 326 349 352 1 315 10 47 28 41 28 11 6 358 351
149 157 154 154 176 187 201 191 200 234 230 258 274 42 349 330 353 329 355 212 261 294 255 286 316 352 70 346 321 324 330 338 327 334 353 6 36 43 23 12 360 352 359